When you browse on this site, cookies collect data to enhance your experience and personalize the content and advertising you see.
Visit our Privacy Policy to learn more. By continuing to use the site, you agree to this use of cookies and data.
  • In Lithuania
  • List of Countries
  • For 7 days
  • Water Temperature
  • Satellite Maps
  • Weather Map
  • Weather Widgets
  • user-avatar
    Login

    Hourly Weather Syamzha

    Today, 17 July, Wednesday

    Time Temperature Precipitation Wind Pressure Humidity
    00:00 +11°C° 0 mm 0 mps 744 mmHg 73%
    01:00 +11°C° 0 mm 0 mps 744 mmHg 71%
    02:00 +13°C° 0 mm 1 mps 744 mmHg 69%
    03:00 +13°C° 0 mm 1 mps 745 mmHg 67%
    04:00 +13°C° 0.3 mm 1 mps 745 mmHg 74%
    05:00 +12°C° 0.3 mm 1 mps 744 mmHg 81%
    06:00 +12°C° 0.3 mm 1 mps 744 mmHg 88%
    07:00 +12°C° 0.9 mm 1 mps 744 mmHg 90%
    08:00 +12°C° 0.9 mm 1 mps 744 mmHg 91%
    09:00 +13°C° 0.9 mm 2 mps 744 mmHg 93%
    10:00 +14°C° 0.6 mm 2 mps 744 mmHg 91%
    11:00 +14°C° 0.6 mm 2 mps 744 mmHg 88%
    12:00 +15°C° 0.6 mm 2 mps 744 mmHg 86%
    13:00 +17°C° 0.5 mm 2 mps 744 mmHg 85%
    14:00 +19°C° 0.5 mm 2 mps 744 mmHg 84%
    15:00 +20°C° 0.5 mm 2 mps 744 mmHg 83%
    16:00 +20°C° 1 mm 2 mps 744 mmHg 85%
    17:00 +21°C° 1 mm 1 mps 744 mmHg 88%
    18:00 +20°C° 1 mm 1 mps 743 mmHg 90%
    19:00 +19°C° 0.5 mm 1 mps 743 mmHg 91%
    20:00 +17°C° 0.5 mm 2 mps 743 mmHg 93%
    21:00 +16°C° 0.5 mm 2 mps 743 mmHg 94%
    22:00 +15°C° 0 mm 2 mps 743 mmHg 95%
    23:00 +15°C° 0 mm 2 mps 743 mmHg 96%

    Tomorrow, 18 July, Thursday

    Time Temperature Precipitation Wind Pressure Humidity
    00:00 +14°C° 0 mm 2 mps 743 mmHg 97%
    01:00 +14°C° 0 mm 2 mps 743 mmHg 97%
    02:00 +14°C° 0 mm 2 mps 743 mmHg 97%
    03:00 +13°C° 0 mm 3 mps 742 mmHg 96%
    04:00 +14°C° 0 mm 3 mps 742 mmHg 96%
    05:00 +14°C° 0 mm 3 mps 742 mmHg 95%
    06:00 +14°C° 0 mm 3 mps 742 mmHg 94%
    07:00 +14°C° 0.6 mm 3 mps 742 mmHg 94%
    08:00 +14°C° 0.6 mm 3 mps 741 mmHg 93%
    09:00 +14°C° 0.6 mm 3 mps 741 mmHg 93%
    10:00 +16°C° 0.3 mm 3 mps 741 mmHg 89%
    11:00 +17°C° 0.3 mm 3 mps 741 mmHg 86%
    12:00 +18°C° 0.3 mm 3 mps 741 mmHg 82%
    13:00 +19°C° 0.1 mm 3 mps 741 mmHg 77%
    14:00 +21°C° 0.1 mm 4 mps 741 mmHg 72%
    15:00 +22°C° 0.1 mm 4 mps 741 mmHg 68%
    16:00 +22°C° 0.1 mm 4 mps 741 mmHg 66%
    17:00 +22°C° 0.1 mm 4 mps 741 mmHg 64%
    18:00 +22°C° 0.1 mm 5 mps 741 mmHg 62%
    19:00 +20°C° 0 mm 4 mps 741 mmHg 71%
    20:00 +18°C° 0 mm 3 mps 741 mmHg 80%
    21:00 +17°C° 0 mm 2 mps 741 mmHg 88%
    22:00 +16°C° 0.1 mm 2 mps 741 mmHg 89%
    23:00 +16°C° 0.1 mm 2 mps 741 mmHg 89%

    Day after tomorrow, 19 July, Friday

    Time Temperature Precipitation Wind Pressure Humidity
    00:00 +16°C° 0.1 mm 3 mps 741 mmHg 90%
    01:00 +14°C° 0.1 mm 3 mps 741 mmHg 92%
    02:00 +15°C° 0.1 mm 2 mps 741 mmHg 95%
    03:00 +15°C° 0.1 mm 2 mps 740 mmHg 97%
    04:00 +15°C° 0 mm 2 mps 740 mmHg 96%
    05:00 +15°C° 0 mm 2 mps 740 mmHg 96%
    06:00 +15°C° 0 mm 2 mps 740 mmHg 95%
    07:00 +16°C° 0 mm 2 mps 741 mmHg 91%
    08:00 +17°C° 0 mm 2 mps 741 mmHg 88%
    09:00 +18°C° 0 mm 2 mps 741 mmHg 84%
    10:00 +19°C° 0.2 mm 2 mps 741 mmHg 81%
    11:00 +20°C° 0.2 mm 2 mps 741 mmHg 79%
    12:00 +21°C° 0.2 mm 2 mps 741 mmHg 76%
    13:00 +21°C° 0.8 mm 2 mps 741 mmHg 78%
    14:00 +21°C° 0.8 mm 2 mps 740 mmHg 80%
    15:00 +22°C° 0.8 mm 1 mps 740 mmHg 81%
    16:00 +22°C° 0.8 mm 1 mps 740 mmHg 83%
    17:00 +22°C° 0.8 mm 1 mps 740 mmHg 85%
    18:00 +22°C° 0.8 mm 1 mps 740 mmHg 86%
    19:00 +21°C° 0.2 mm 1 mps 740 mmHg 88%
    20:00 +19°C° 0.2 mm 1 mps 740 mmHg 91%
    21:00 +18°C° 0.2 mm 1 mps 740 mmHg 93%
    22:00 +16°C° 0 mm 1 mps 740 mmHg 93%
    23:00 +15°C° 0 mm 1 mps 739 mmHg 94%

    20 July, Saturday

    Time Temperature Precipitation Wind Pressure Humidity
    00:00 +14°C° 0 mm 1 mps 739 mmHg 95%
    01:00 +14°C° 0 mm 1 mps 739 mmHg 95%
    02:00 +13°C° 0 mm 1 mps 739 mmHg 95%
    03:00 +12°C° 0 mm 0 mps 739 mmHg 96%
    04:00 +12°C° 0 mm 0 mps 739 mmHg 95%
    05:00 +13°C° 0 mm 0 mps 739 mmHg 95%
    06:00 +14°C° 0 mm 0 mps 739 mmHg 95%
    07:00 +18°C° 0.1 mm 1 mps 739 mmHg 89%
    08:00 +19°C° 0.1 mm 1 mps 739 mmHg 83%
    09:00 +21°C° 0.1 mm 1 mps 740 mmHg 78%
    10:00 +21°C° 1 mm 1 mps 739 mmHg 78%
    11:00 +22°C° 1 mm 1 mps 739 mmHg 79%
    12:00 +22°C° 1 mm 1 mps 739 mmHg 79%
    13:00 +22°C° 0.9 mm 1 mps 739 mmHg 78%
    14:00 +23°C° 0.9 mm 1 mps 739 mmHg 77%
    15:00 +23°C° 0.9 mm 1 mps 739 mmHg 76%
    16:00 +22°C° 0.7 mm 1 mps 739 mmHg 79%
    17:00 +22°C° 0.7 mm 1 mps 739 mmHg 82%
    18:00 +22°C° 0.7 mm 1 mps 740 mmHg 85%
    19:00 +20°C° 0.3 mm 1 mps 740 mmHg 88%
    20:00 +19°C° 0.3 mm 1 mps 740 mmHg 91%
    21:00 +16°C° 0.3 mm 1 mps 740 mmHg 94%
    22:00 +16°C° 0 mm 1 mps 740 mmHg 96%
    23:00 +15°C° 0 mm 2 mps 740 mmHg 97%

    21 July, Sunday

    Time Temperature Precipitation Wind Pressure Humidity
    00:00 +15°C° 0 mm 2 mps 741 mmHg 98%
    01:00 +15°C° 0 mm 2 mps 741 mmHg 98%
    02:00 +13°C° 0 mm 3 mps 741 mmHg 98%
    03:00 +13°C° 0 mm 3 mps 741 mmHg 98%
    04:00 +12°C° 0 mm 3 mps 742 mmHg 98%
    05:00 +12°C° 0 mm 3 mps 742 mmHg 97%
    06:00 +12°C° 0 mm 3 mps 742 mmHg 97%
    07:00 +12°C° 0 mm 3 mps 742 mmHg 97%
    08:00 +12°C° 0 mm 3 mps 743 mmHg 96%
    09:00 +12°C° 0 mm 3 mps 743 mmHg 96%
    10:00 +13°C° 0 mm 3 mps 743 mmHg 94%
    11:00 +14°C° 0 mm 2 mps 744 mmHg 92%
    12:00 +15°C° 0 mm 2 mps 744 mmHg 90%
    13:00 +17°C° 0 mm 2 mps 744 mmHg 80%
    14:00 +18°C° 0 mm 2 mps 745 mmHg 71%
    15:00 +20°C° 0 mm 2 mps 745 mmHg 61%
    16:00 +20°C° 0 mm 3 mps 745 mmHg 62%
    17:00 +19°C° 0 mm 3 mps 745 mmHg 63%
    18:00 +19°C° 0 mm 4 mps 745 mmHg 63%
    19:00 +17°C° 0 mm 4 mps 745 mmHg 67%
    20:00 +16°C° 0 mm 3 mps 745 mmHg 71%
    21:00 +13°C° 0 mm 3 mps 746 mmHg 75%
    22:00 +13°C° 0 mm 3 mps 746 mmHg 76%
    23:00 +12°C° 0 mm 3 mps 746 mmHg 78%

    22 July, Monday

    Time Temperature Precipitation Wind Pressure Humidity
    00:00 +13°C° 0 mm 2 mps 746 mmHg 79%
    01:00 +12°C° 0 mm 2 mps 746 mmHg 84%
    02:00 +10°C° 0 mm 2 mps 746 mmHg 89%
    03:00 +9°C° 0 mm 3 mps 746 mmHg 94%
    04:00 +9°C° 0 mm 3 mps 746 mmHg 91%
    05:00 +9°C° 0 mm 3 mps 746 mmHg 88%
    06:00 +10°C° 0 mm 4 mps 746 mmHg 85%
    07:00 +10°C° 0 mm 4 mps 746 mmHg 82%
    08:00 +10°C° 0 mm 4 mps 746 mmHg 80%
    09:00 +10°C° 0 mm 3 mps 746 mmHg 78%
    10:00 +10°C° 0 mm 4 mps 746 mmHg 76%
    11:00 +11°C° 0 mm 4 mps 746 mmHg 74%
    12:00 +11°C° 0 mm 4 mps 747 mmHg 73%
    13:00 +11°C° 0.1 mm 3 mps 747 mmHg 76%
    14:00 +12°C° 0.1 mm 2 mps 746 mmHg 79%
    15:00 +12°C° 0.1 mm 2 mps 746 mmHg 81%
    16:00 +12°C° 0 mm 2 mps 746 mmHg 81%
    17:00 +12°C° 0 mm 2 mps 746 mmHg 81%
    18:00 +12°C° 0 mm 2 mps 746 mmHg 81%
    19:00 +12°C° 0 mm 2 mps 746 mmHg 82%
    20:00 +12°C° 0 mm 2 mps 746 mmHg 82%
    21:00 +12°C° 0 mm 2 mps 746 mmHg 82%
    22:00 +12°C° 0 mm 2 mps 746 mmHg 84%
    23:00 +10°C° 0 mm 2 mps 746 mmHg 85%
    Show more